Regional Weather Roundup
Issued by NWS

Home | Current Version | Previous Version | Graphics & Text | Print | Product List | Glossary Off
Versions: 1 2 3 4 5 6 7 8 9 10 11 12 13 14 15 16 17 18 19 20 21 22 23 24 25 26 27 28 29 30 31 32 33 34 35 36 37 38 39 40 41 42 43 44 45 46 47 48 49 50

000
ASUS43 KTOP 221108
RWRKS

WEATHER ROUNDUP FOR KANSAS
NATIONAL WEATHER SERVICE GOODLAND KS
600 AM CDT TUE JUL 22 2014

NOTE:  "FAIR" INDICATES FEW OR NO CLOUDS BELOW 12,000 FEET WITH NO
SIGNIFICANT WEATHER AND/OR OBSTRUCTIONS TO VISIBILITY.

KSZ001>006-013>018-027>032-041>047-221200-
NORTHWEST KANSAS

CITY           SKY/WX    TMP DP  RH WIND       PRES   REMARKS
GOODLAND       CLEAR     68  59  73 W10       30.10S
HAYS           PTCLDY    70  59  68 NW9       30.04R
HILL CITY      PTCLDY    67  61  81 CALM      30.05R
RUSSELL        CLEAR     69  67  93 SE9       30.02R
$$

KSZ061>065-074>080-084>089-221200-
SOUTHWEST KANSAS

CITY           SKY/WX    TMP DP  RH WIND       PRES   REMARKS
DODGE CITY     PTCLDY    71  64  78 SE6       30.08R
ELKHART          N/A     68  64  87 S6          N/A
GARDEN CITY    CLEAR     67  63  87 SE5       30.09R
GREAT BEND     PTCLDY    72  64  78 S3        30.04R
LIBERAL        CLEAR     70  63  78 W3        30.11R
$$

KSZ066>073-081>083-090>101-221200-
SOUTHEAST KANSAS

CITY           SKY/WX    TMP DP  RH WIND       PRES   REMARKS
CHANUTE        PTCLDY    74  71  91 S8        30.05R
COFFEYVILLE    CLEAR     73  70  90 S7        30.04R FOG
HUTCHINSON     MOCLDY    75  70  84 SE3       30.04R
MEDICINE LODGE   N/A     75  71  87 CALM      30.05R
NEWTON         PTCLDY    77  68  73 S12       30.07R
PARSONS        PTCLDY    73  69  87 S6        30.06R
WICHITA INTL   MOCLDY    76  74  93 S8        30.04R
WICHITA JABRA  PTCLDY    75  74  96 S7        30.04R
WICHITA MCCONL PTCLDY    76  76 100 S9        30.05R
WINFIELD       MOCLDY    75  74  96 S6        30.06R
$$

KSZ007>012-019>026-033>040-048>060-102>105-221200-
NORTHEAST KANSAS

CITY           SKY/WX    TMP DP  RH WIND       PRES   REMARKS
CONCORDIA      CLEAR     77  71  82 SW12      29.99R
EMPORIA        CLEAR     74  73  97 S10       30.02R FOG
LAWRENCE       CLEAR     78  74  87 S7        30.01R FOG
MANHATTAN      CLEAR     77  74  90 SW6       29.99R
MARYSVILLE     CLEAR     73  72  94 S6        29.98R
OLATHE IND     CLEAR     74  72  93 S7        30.04R FOG
OLATHE EXE     CLEAR     73  72  96 S7        30.03R FOG
SALINA         CLEAR     75  71  87 S7        30.01R
TOPEKA BILLARD CLEAR     79  75  87 S5        30.00R
TOPEKA FORBES  CLEAR     77  74  90 S12       30.00R FOG
$$


USA.gov is the U.S. government's official web portal to all federal, state and local government web resources and services.